| time (UTC) | temp C | wind direction | speed KPH | gust KPH | rain 1hr cm | rain 24hr cm | rain mn cm | humidity % | barometer mb |
| 20260506134526 | 11 | 360 | 9.7 | 19.3 | 0.00 | 0.00 | 0.00 | 88 | 1013.8 |
| 20260506134010 | 11 | 13 | 8.0 | 19.3 | 0.00 | 0.00 | 0.00 | 87 | 1013.8 |
| 20260506133504 | 11 | 17 | 11.3 | 19.3 | 0.00 | 0.00 | 0.00 | 87 | 1013.7 |
| 20260506133014 | 11 | 352 | 8.0 | 25.7 | 0.00 | 0.00 | 0.00 | 87 | 1013.7 |
| 20260506132504 | 11 | 350 | 11.3 | 25.7 | 0.00 | 0.00 | 0.00 | 87 | 1013.7 |
| 20260506132007 | 11 | 21 | 9.7 | 17.7 | 0.00 | 0.00 | 0.00 | 87 | 1013.9 |
| 20260506131518 | 11 | 350 | 11.3 | 20.9 | 0.00 | 0.00 | 0.00 | 87 | 1013.8 |
| 20260506131006 | 11 | 350 | 9.7 | 20.9 | 0.00 | 0.00 | 0.00 | 87 | 1013.7 |
| 20260506130506 | 11 | 22 | 9.7 | 17.7 | 0.00 | 0.00 | 0.00 | 87 | 1013.9 |
| 20260506130023 | 11 | 348 | 12.9 | 17.7 | 0.00 | 0.00 | 0.00 | 87 | 1013.7 |
| 20260506125512 | 11 | 10 | 11.3 | 16.1 | 0.00 | 0.00 | 0.00 | 87 | 1013.6 |
| 20260506125011 | 11 | 9 | 8.0 | 16.1 | 0.00 | 0.00 | 0.00 | 87 | 1013.4 |
| 20260506124525 | 11 | 360 | 6.4 | 16.1 | 0.00 | 0.00 | 0.00 | 87 | 1013.4 |
| 20260506124007 | 11 | 346 | 9.7 | 20.9 | 0.00 | 0.00 | 0.00 | 86 | 1013.3 |
| 20260506123507 | 11 | 352 | 9.7 | 20.9 | 0.00 | 0.00 | 0.00 | 85 | 1013.4 |
| 20260506123027 | 11 | 352 | 11.3 | 22.5 | 0.00 | 0.00 | 0.00 | 85 | 1013.4 |
| 20260506122509 | 11 | 352 | 8.0 | 22.5 | 0.00 | 0.00 | 0.00 | 85 | 1013.1 |
| 20260506122007 | 11 | 352 | 11.3 | 17.7 | 0.00 | 0.00 | 0.00 | 84 | 1013.0 |
| 20260506121515 | 11 | 15 | 9.7 | 20.9 | 0.00 | 0.00 | 0.00 | 84 | 1013.0 |
| 20260506121004 | 11 | 352 | 9.7 | 20.9 | 0.00 | 0.00 | 0.00 | 83 | 1013.0 |
| 20260506120504 | 12 | 352 | 14.5 | 20.9 | 0.00 | 0.00 | 0.00 | 83 | 1012.8 |
| 20260506120041 | 12 | 12 | 14.5 | 24.1 | 0.00 | 0.00 | 0.00 | 83 | 1012.6 |
| 20260506115508 | 12 | 329 | 14.5 | 24.1 | 0.00 | 0.00 | 0.00 | 82 | 1012.2 |
| 20260506115009 | 12 | 22 | 11.3 | 19.3 | 0.00 | 0.00 | 0.00 | 82 | 1012.5 |
| 20260506114503 | 12 | 46 | 11.3 | 22.5 | 0.00 | 0.00 | 0.00 | 82 | 1012.5 |
| 20260506114003 | 12 | 9 | 12.9 | 22.5 | 0.00 | 0.00 | 0.00 | 82 | 1012.3 |
| 20260506113506 | 12 | 351 | 14.5 | 20.9 | 0.00 | 0.00 | 0.00 | 81 | 1012.1 |
| 20260506113009 | 12 | 12 | 9.7 | 20.9 | 0.00 | 0.00 | 0.00 | 81 | 1012.2 |
| 20260506112503 | 12 | 23 | 12.9 | 20.9 | 0.00 | 0.00 | 0.00 | 80 | 1012.2 |
| 20260506112003 | 12 | 12 | 11.3 | 19.3 | 0.00 | 0.00 | 0.00 | 79 | 1011.9 |
| 20260506111511 | 12 | 303 | 6.4 | 16.1 | 0.00 | 0.00 | 0.00 | 79 | 1011.7 |
| 20260506111003 | 13 | 348 | 8.0 | 16.1 | 0.00 | 0.00 | 0.00 | 79 | 1011.8 |
| 20260506110503 | 13 | 9 | 8.0 | 16.1 | 0.00 | 0.00 | 0.00 | 79 | 1011.5 |
| 20260506110012 | 13 | 333 | 6.4 | 16.1 | 0.00 | 0.00 | 0.00 | 78 | 1011.5 |
| 20260506105505 | 13 | 360 | 9.7 | 16.1 | 0.00 | 0.00 | 0.00 | 78 | 1011.3 |
| 20260506105002 | 13 | 9 | 6.4 | 16.1 | 0.00 | 0.00 | 0.00 | 78 | 1011.4 |
| 20260506104503 | 13 | 9 | 8.0 | 16.1 | 0.00 | 0.00 | 0.00 | 78 | 1011.2 |
| 20260506104006 | 13 | 11 | 8.0 | 16.1 | 0.00 | 0.00 | 0.00 | 78 | 1011.1 |
| 20260506103502 | 13 | 9 | 8.0 | 12.9 | 0.00 | 0.00 | 0.00 | 78 | 1011.0 |
| 20260506103018 | 13 | 352 | 4.8 | 11.3 | 0.00 | 0.00 | 0.00 | 79 | 1011.0 |
| 20260506102502 | 13 | 352 | 4.8 | 11.3 | 0.00 | 0.00 | 0.00 | 79 | 1010.8 |
| 20260506102003 | 13 | 360 | 6.4 | 11.3 | 0.00 | 0.00 | 0.00 | 78 | 1010.8 |
| 20260506101513 | 13 | 39 | 6.4 | 14.5 | 0.00 | 0.00 | 0.00 | 79 | 1010.9 |
| 20260506101002 | 13 | 10 | 4.8 | 14.5 | 0.00 | 0.00 | 0.00 | 78 | 1010.9 |
| 20260506100502 | 13 | 5 | 8.0 | 14.5 | 0.00 | 0.00 | 0.00 | 78 | 1010.8 |
| 20260506100015 | 13 | 360 | 6.4 | 11.3 | 0.00 | 0.00 | 0.00 | 79 | 1010.8 |
| 20260506095503 | 13 | 13 | 6.4 | 16.1 | 0.00 | 0.00 | 0.00 | 79 | 1010.7 |
| 20260506095004 | 13 | 352 | 6.4 | 16.1 | 0.00 | 0.00 | 0.00 | 78 | 1010.8 |
| 20260506094515 | 13 | 352 | 6.4 | 14.5 | 0.00 | 0.00 | 0.00 | 79 | 1010.7 |
| 20260506094004 | 13 | 349 | 8.0 | 14.5 | 0.00 | 0.00 | 0.00 | 78 | 1010.7 |
| 20260506093503 | 13 | 15 | 8.0 | 12.9 | 0.00 | 0.00 | 0.00 | 79 | 1010.6 |
| 20260506093016 | 13 | 18 | 4.8 | 11.3 | 0.00 | 0.00 | 0.00 | 79 | 1010.5 |
| 20260506092503 | 13 | 338 | 6.4 | 11.3 | 0.00 | 0.00 | 0.00 | 79 | 1010.5 |
| 20260506092003 | 13 | 350 | 6.4 | 14.5 | 0.00 | 0.00 | 0.00 | 79 | 1010.6 |
| 20260506091510 | 13 | 17 | 4.8 | 14.5 | 0.00 | 0.00 | 0.00 | 79 | 1010.4 |
| 20260506091002 | 13 | 360 | 6.4 | 12.9 | 0.00 | 0.00 | 0.00 | 79 | 1010.2 |
| 20260506090502 | 13 | 342 | 3.2 | 6.4 | 0.00 | 0.00 | 0.00 | 80 | 1010.2 |
| 20260506090016 | 13 | 40 | 1.6 | 11.3 | 0.00 | 0.00 | 0.00 | 80 | 1010.1 |
| 20260506085505 | 13 | 26 | 4.8 | 11.3 | 0.00 | 0.00 | 0.00 | 79 | 1010.1 |
| 20260506085005 | 13 | 13 | 4.8 | 8.0 | 0.00 | 0.00 | 0.00 | 80 | 1010.2 |
| 20260506084536 | 13 | 352 | 1.6 | 4.8 | 0.00 | 0.00 | 0.00 | 80 | 1010.1 |
| 20260506084006 | 13 | 50 | 3.2 | 9.7 | 0.00 | 0.00 | 0.00 | 80 | 1010.0 |
| 20260506083503 | 13 | 351 | 4.8 | 11.3 | 0.00 | 0.00 | 0.00 | 79 | 1010.1 |
| 20260506083017 | 13 | 346 | 4.8 | 11.3 | 0.00 | 0.00 | 0.00 | 80 | 1010.1 |
| 20260506082504 | 13 | 351 | 4.8 | 12.9 | 0.00 | 0.00 | 0.00 | 80 | 1010.2 |
| 20260506082003 | 13 | 352 | 3.2 | 12.9 | 0.00 | 0.00 | 0.00 | 79 | 1010.2 |
| 20260506081506 | 13 | 22 | 3.2 | 9.7 | 0.00 | 0.00 | 0.00 | 79 | 1010.2 |
| 20260506081005 | 14 | 360 | 4.8 | 14.5 | 0.00 | 0.00 | 0.00 | 80 | 1010.4 |
| 20260506080504 | 13 | 13 | 9.7 | 14.5 | 0.00 | 0.00 | 0.00 | 79 | 1010.3 |
| 20260506073506 | 14 | 14 | 9.7 | 16.1 | 0.00 | 0.00 | 0.00 | 79 | 1010.2 |
| 20260506073018 | 14 | 22 | 8.0 | 16.1 | 0.00 | 0.00 | 0.00 | 79 | 1010.0 |
| 20260506072506 | 15 | 351 | 4.8 | 14.5 | 0.00 | 0.00 | 0.00 | 80 | 1010.0 |
| 20260506072008 | 15 | 30 | 9.7 | 16.1 | 0.00 | 0.00 | 0.00 | 79 | 1010.0 |
| 20260506071520 | 15 | 9 | 9.7 | 16.1 | 0.00 | 0.00 | 0.00 | 79 | 1010.0 |
| 20260506071005 | 15 | 9 | 8.0 | 14.5 | 0.00 | 0.00 | 0.00 | 79 | 1010.2 |
| 20260506070505 | 15 | 16 | 6.4 | 14.5 | 0.00 | 0.00 | 0.00 | 79 | 1009.8 |
| 20260506062506 | 15 | 11 | 9.7 | 14.5 | 0.00 | 0.00 | 0.00 | 79 | 1009.9 |
| 20260506062006 | 15 | 9 | 8.0 | 14.5 | 0.00 | 0.00 | 0.00 | 79 | 1009.8 |
| 20260506061522 | 15 | 327 | 6.4 | 12.9 | 0.00 | 0.00 | 0.00 | 79 | 1009.9 |
| 20260506061006 | 16 | 360 | 6.4 | 12.9 | 0.00 | 0.00 | 0.00 | 80 | 1009.9 |
| 20260506060505 | 16 | 348 | 4.8 | 11.3 | 0.00 | 0.00 | 0.00 | 80 | 1009.9 |
| 20260506051010 | 16 | 5 | 11.3 | 19.3 | 0.00 | 0.00 | 0.00 | 80 | 1009.4 |
| 20260506050506 | 17 | 352 | 8.0 | 19.3 | 0.00 | 0.00 | 0.00 | 79 | 1009.6 |
| 20260506045010 | 17 | 13 | 8.0 | 16.1 | 0.00 | 0.00 | 0.00 | 79 | 1009.4 |
| 20260506044523 | 17 | 352 | 9.7 | 16.1 | 0.00 | 0.00 | 0.00 | 79 | 1009.3 |
| 20260506044007 | 17 | 349 | 8.0 | 17.7 | 0.00 | 0.00 | 0.00 | 79 | 1009.3 |
| 20260506043509 | 17 | 42 | 12.9 | 17.7 | 0.00 | 0.00 | 0.00 | 78 | 1009.2 |
| 20260506043015 | 17 | 9 | 12.9 | 17.7 | 0.00 | 0.00 | 0.00 | 78 | 1009.2 |
| 20260506042504 | 18 | 351 | 11.3 | 17.7 | 0.00 | 0.00 | 0.00 | 78 | 1009.0 |
| 20260506042006 | 18 | 9 | 11.3 | 19.3 | 0.00 | 0.00 | 0.00 | 77 | 1009.0 |
| 20260506041522 | 18 | 12 | 11.3 | 19.3 | 0.00 | 0.00 | 0.00 | 77 | 1008.9 |
| 20260506041003 | 19 | 33 | 12.9 | 19.3 | 0.00 | 0.00 | 0.00 | 77 | 1008.8 |
| 20260506040506 | 19 | 17 | 14.5 | 22.5 | 0.00 | 0.00 | 0.00 | 76 | 1008.7 |
| 20260506040031 | 20 | 346 | 14.5 | 22.5 | 0.00 | 0.00 | 0.00 | 77 | 1008.7 |
| 20260506035508 | 20 | 9 | 11.3 | 17.7 | 0.00 | 0.00 | 0.00 | 76 | 1008.6 |
| 20260506035006 | 21 | 347 | 11.3 | 20.9 | 0.00 | 0.00 | 0.00 | 76 | 1008.5 |
| 20260506034526 | 21 | 18 | 12.9 | 20.9 | 0.00 | 0.00 | 0.00 | 76 | 1008.4 |
| 20260506034008 | 21 | 360 | 11.3 | 20.9 | 0.00 | 0.00 | 0.00 | 76 | 1008.4 |
| 20260506033506 | 22 | 344 | 11.3 | 20.9 | 0.00 | 0.00 | 0.00 | 76 | 1008.3 |
| 20260506033026 | 22 | 360 | 11.3 | 20.9 | 0.00 | 0.00 | 0.00 | 76 | 1008.3 |
| 20260506032507 | 23 | 351 | 6.4 | 14.5 | 0.00 | 0.00 | 0.00 | 77 | 1008.3 |
| 20260506032003 | 23 | 319 | 6.4 | 20.9 | 0.00 | 0.00 | 0.00 | 76 | 1008.0 |
| 20260506031518 | 23 | 344 | 9.7 | 20.9 | 0.00 | 0.00 | 0.00 | 76 | 1007.8 |
| 20260506031004 | 23 | 349 | 6.4 | 12.9 | 0.00 | 0.00 | 0.00 | 78 | 1007.6 |
| 20260506030504 | 23 | 360 | 1.6 | 3.2 | 0.00 | 0.00 | 0.00 | 85 | 1007.4 |
| 20260506030021 | 23 | 343 | 0.0 | 0.0 | 0.00 | 0.00 | 0.00 | 84 | 1007.3 |
| 20260506025506 | 24 | 343 | 0.0 | 0.0 | 0.00 | 0.00 | 0.00 | 84 | 1007.2 |
| 20260506025010 | 24 | 319 | 0.0 | 0.0 | 0.00 | 0.00 | 0.00 | 84 | 1007.0 |
| 20260506024526 | 24 | 224 | 0.0 | 0.0 | 0.00 | 0.00 | 0.00 | 84 | 1006.7 |
| 20260506024008 | 24 | 224 | 0.0 | 0.0 | 0.00 | 0.00 | 0.00 | 83 | 1006.9 |
| 20260506023509 | 24 | 224 | 0.0 | 0.0 | 0.00 | 0.00 | 0.00 | 83 | 1006.8 |
| 20260506023048 | 24 | 224 | 0.0 | 0.0 | 0.00 | 0.00 | 0.00 | 82 | 1006.4 |
| 20260506022509 | 24 | 224 | 0.0 | 0.0 | 0.00 | 0.00 | 0.00 | 82 | 1006.4 |
| 20260506022012 | 24 | 224 | 0.0 | 0.0 | 0.00 | 0.00 | 0.00 | 82 | 1006.6 |
| 20260506021541 | 24 | 224 | 0.0 | 0.0 | 0.00 | 0.00 | 0.00 | 82 | 1006.7 |
| 20260506021011 | 24 | 224 | 0.0 | 0.0 | 0.00 | 0.00 | 0.00 | 81 | 1006.6 |
| 20260506020503 | 25 | 235 | 0.0 | 0.0 | 0.00 | 0.00 | 0.00 | 81 | 1006.5 |
| 20260506020026 | 25 | 235 | 0.0 | 1.6 | 0.00 | 0.00 | 0.00 | 81 | 1006.3 |
| 20260506015506 | 25 | 36 | 0.0 | 3.2 | 0.00 | 0.00 | 0.00 | 81 | 1006.4 |
| 20260506015007 | 25 | 36 | 0.0 | 6.4 | 0.00 | 0.00 | 0.00 | 81 | 1006.4 |
| 20260506014524 | 25 | 258 | 3.2 | 6.4 | 0.00 | 0.00 | 0.00 | 1006.5 | |
| 20260506014008 | 25 | 242 | 3.2 | 6.4 | 0.00 | 0.00 | 0.00 | 79 | 1006.1 |
| 20260506013507 | 25 | 238 | 3.2 | 4.8 | 0.00 | 0.00 | 0.00 | 79 | 1005.9 |
| 20260506013033 | 25 | 211 | 1.6 | 9.7 | 0.00 | 0.00 | 0.00 | 79 | 1005.4 |
| 20260506012504 | 25 | 215 | 1.6 | 9.7 | 0.00 | 0.00 | 0.00 | 79 | 1005.3 |
| 20260506012004 | 25 | 188 | 1.6 | 6.4 | 0.00 | 0.00 | 0.00 | 78 | 1005.5 |
| 20260506011512 | 25 | 219 | 1.6 | 6.4 | 0.00 | 0.00 | 0.00 | 78 | 1005.8 |
| 20260506011003 | 25 | 215 | 1.6 | 8.0 | 0.00 | 0.00 | 0.00 | 78 | 1005.9 |
| 20260506010504 | 25 | 215 | 3.2 | 8.0 | 0.00 | 0.00 | 0.00 | 77 | 1006.0 |
| 20260506010019 | 25 | 234 | 3.2 | 8.0 | 0.00 | 0.00 | 0.00 | 77 | 1006.1 |
| 20260506005504 | 25 | 204 | 4.8 | 8.0 | 0.00 | 0.00 | 0.00 | 77 | 1006.0 |
| 20260506005004 | 25 | 218 | 4.8 | 8.0 | 0.00 | 0.00 | 0.00 | 1005.9 | |
| 20260506004526 | 25 | 193 | 4.8 | 9.7 | 0.00 | 0.00 | 0.00 | 76 | 1005.6 |
| 20260506004013 | 26 | 225 | 4.8 | 9.7 | 0.00 | 0.00 | 0.00 | 76 | 1005.4 |
| 20260506003515 | 26 | 198 | 6.4 | 11.3 | 0.00 | 0.00 | 0.00 | 75 | 1005.6 |
| 20260506003006 | 26 | 192 | 6.4 | 12.9 | 0.00 | 0.00 | 0.00 | 75 | 1005.4 |
| 20260506002503 | 26 | 214 | 4.8 | 12.9 | 0.00 | 0.00 | 0.00 | 75 | 1005.6 |
| 20260506002002 | 26 | 196 | 4.8 | 11.3 | 0.00 | 0.00 | 0.00 | 75 | 1005.5 |
| 20260506001507 | 26 | 207 | 6.4 | 11.3 | 0.00 | 0.00 | 0.00 | 75 | 1005.5 |
| 20260506001003 | 26 | 190 | 3.2 | 12.9 | 0.00 | 0.00 | 0.00 | 74 | 1005.3 |
| 20260506000504 | 26 | 223 | 6.4 | 12.9 | 0.00 | 0.00 | 0.00 | 74 | 1005.2 |
| 20260506000013 | 26 | 208 | 6.4 | 12.9 | 0.00 | 0.00 | 0.00 | 74 | 1005.3 |
| 20260505235508 | 26 | 210 | 8.0 | 12.9 | 0.00 | 0.00 | 0.00 | 73 | 1005.4 |
| 20260505235006 | 26 | 215 | 4.8 | 12.9 | 0.00 | 0.00 | 0.00 | 73 | 1005.3 |
| 20260505234519 | 27 | 209 | 3.2 | 17.7 | 0.00 | 0.00 | 0.00 | 73 | 1005.2 |
| 20260505234006 | 27 | 215 | 6.4 | 17.7 | 0.00 | 0.00 | 0.00 | 73 | 1005.3 |
| 20260505233510 | 27 | 221 | 6.4 | 14.5 | 0.00 | 0.00 | 0.00 | 73 | 1005.3 |
| 20260505233022 | 27 | 198 | 8.0 | 12.9 | 0.00 | 0.00 | 0.00 | 73 | 1005.4 |
| 20260505232508 | 27 | 213 | 6.4 | 14.5 | 0.00 | 0.00 | 0.00 | 72 | 1005.4 |
| 20260505232002 | 27 | 228 | 6.4 | 19.3 | 0.00 | 0.00 | 0.00 | 71 | 1005.3 |
| 20260505231507 | 27 | 200 | 11.3 | 19.3 | 0.00 | 0.00 | 0.00 | 71 | 1005.2 |
| 20260505231008 | 27 | 238 | 9.7 | 16.1 | 0.00 | 0.00 | 0.00 | 71 | 1005.2 |
| 20260505230509 | 27 | 210 | 8.0 | 16.1 | 0.00 | 0.00 | 0.00 | 71 | 1005.0 |
| 20260505230015 | 27 | 209 | 11.3 | 16.1 | 0.00 | 0.00 | 0.00 | 71 | 1005.0 |
| 20260505225504 | 27 | 209 | 6.4 | 16.1 | 0.00 | 0.00 | 0.00 | 72 | 1004.9 |
| 20260505225004 | 27 | 200 | 9.7 | 16.1 | 0.00 | 0.00 | 0.00 | 71 | 1005.0 |
| 20260505224518 | 27 | 213 | 8.0 | 14.5 | 0.00 | 0.00 | 0.00 | 71 | 1005.0 |
| 20260505224009 | 27 | 213 | 8.0 | 19.3 | 0.00 | 0.00 | 0.00 | 71 | 1005.1 |
| 20260505223514 | 27 | 206 | 9.7 | 19.3 | 0.00 | 0.00 | 0.00 | 70 | 1005.2 |
| 20260505223020 | 27 | 201 | 11.3 | 19.3 | 0.00 | 0.00 | 0.00 | 70 | 1005.0 |
| 20260505222507 | 27 | 190 | 9.7 | 19.3 | 0.00 | 0.00 | 0.00 | 71 | 1005.0 |
| 20260505222012 | 27 | 241 | 12.9 | 19.3 | 0.00 | 0.00 | 0.00 | 71 | 1005.0 |
| 20260505221525 | 27 | 225 | 11.3 | 24.1 | 0.00 | 0.00 | 0.00 | 71 | 1005.1 |
| 20260505221009 | 28 | 230 | 11.3 | 24.1 | 0.00 | 0.00 | 0.00 | 70 | 1005.2 |
| 20260505220503 | 28 | 232 | 12.9 | 24.1 | 0.00 | 0.00 | 0.00 | 70 | 1005.2 |
| 20260505220007 | 28 | 206 | 8.0 | 17.7 | 0.00 | 0.00 | 0.00 | 71 | 1005.1 |
| 20260505215505 | 27 | 150 | 11.3 | 19.3 | 0.00 | 0.00 | 0.00 | 70 | 1005.2 |
| 20260505215003 | 28 | 250 | 6.4 | 19.3 | 0.00 | 0.00 | 0.00 | 71 | 1005.3 |
| 20260505214512 | 28 | 227 | 12.9 | 24.1 | 0.00 | 0.00 | 0.00 | 70 | 1005.3 |
| 20260505214002 | 28 | 213 | 12.9 | 24.1 | 0.00 | 0.00 | 0.00 | 69 | 1005.3 |
| 20260505213504 | 28 | 220 | 12.9 | 24.1 | 0.00 | 0.00 | 0.00 | 69 | 1005.2 |
| 20260505213028 | 28 | 211 | 12.9 | 24.1 | 0.00 | 0.00 | 0.00 | 69 | 1005.1 |
| 20260505212510 | 28 | 236 | 11.3 | 22.5 | 0.00 | 0.00 | 0.00 | 68 | 1005.1 |
| 20260505212011 | 28 | 223 | 14.5 | 20.9 | 0.00 | 0.00 | 0.00 | 69 | 1005.2 |
| 20260505211526 | 28 | 186 | 11.3 | 20.9 | 0.00 | 0.00 | 0.00 | 69 | 1005.3 |
| 20260505211006 | 28 | 212 | 12.9 | 24.1 | 0.00 | 0.00 | 0.00 | 69 | 1005.3 |
| 20260505210509 | 28 | 205 | 16.1 | 24.1 | 0.00 | 0.00 | 0.00 | 69 | 1005.2 |
| 20260505210028 | 28 | 218 | 14.5 | 20.9 | 0.00 | 0.00 | 0.00 | 69 | 1005.2 |
| 20260505205511 | 28 | 211 | 12.9 | 19.3 | 0.00 | 0.00 | 0.00 | 71 | 1005.3 |
| 20260505205008 | 28 | 189 | 11.3 | 22.5 | 0.00 | 0.00 | 0.00 | 70 | 1005.4 |
| 20260505204512 | 27 | 193 | 12.9 | 17.7 | 0.00 | 0.00 | 0.00 | 70 | 1005.4 |
| 20260505204004 | 28 | 213 | 9.7 | 20.9 | 0.00 | 0.00 | 0.00 | 72 | 1005.5 |
| 20260505203503 | 28 | 227 | 12.9 | 24.1 | 0.00 | 0.00 | 0.00 | 71 | 1005.6 |
| 20260505203027 | 27 | 205 | 16.1 | 25.7 | 0.00 | 0.00 | 0.00 | 70 | 1005.6 |
| 20260505202503 | 27 | 239 | 12.9 | 25.7 | 0.00 | 0.00 | 0.00 | 70 | 1005.6 |
| 20260505202006 | 27 | 200 | 12.9 | 25.7 | 0.00 | 0.00 | 0.00 | 69 | 1005.6 |
| 20260505201530 | 27 | 237 | 12.9 | 24.1 | 0.00 | 0.00 | 0.00 | 70 | 1005.6 |
| 20260505201006 | 27 | 242 | 14.5 | 24.1 | 0.00 | 0.00 | 0.00 | 70 | 1005.7 |
| 20260505200508 | 27 | 241 | 16.1 | 29.0 | 0.00 | 0.00 | 0.00 | 71 | 1005.8 |
| 20260505200023 | 27 | 213 | 16.1 | 29.0 | 0.00 | 0.00 | 0.00 | 71 | 1005.9 |
| 20260505195510 | 27 | 237 | 16.1 | 29.0 | 0.00 | 0.00 | 0.00 | 73 | 1005.8 |
| 20260505195011 | 27 | 200 | 16.1 | 25.7 | 0.00 | 0.00 | 0.00 | 73 | 1005.6 |
| 20260505194526 | 27 | 202 | 16.1 | 32.2 | 0.00 | 0.00 | 0.00 | 72 | 1005.7 |
| 20260505194010 | 27 | 237 | 19.3 | 32.2 | 0.00 | 0.00 | 0.00 | 71 | 1005.7 |
| 20260505193503 | 26 | 212 | 14.5 | 25.7 | 0.00 | 0.00 | 0.00 | 71 | 1005.8 |
| 20260505193033 | 26 | 203 | 17.7 | 24.1 | 0.00 | 0.00 | 0.00 | 73 | 1005.9 |
| 20260505192512 | 26 | 234 | 16.1 | 29.0 | 0.00 | 0.00 | 0.00 | 72 | 1005.9 |
| 20260505192006 | 26 | 225 | 14.5 | 29.0 | 0.00 | 0.00 | 0.00 | 72 | 1006.0 |
| 20260505191521 | 26 | 199 | 16.1 | 29.0 | 0.00 | 0.00 | 0.00 | 72 | 1006.0 |
| 20260505191007 | 26 | 219 | 14.5 | 22.5 | 0.00 | 0.00 | 0.00 | 73 | 1006.0 |
| 20260505190510 | 26 | 225 | 11.3 | 24.1 | 0.00 | 0.00 | 0.00 | 73 | 1006.0 |
| 20260505190025 | 26 | 238 | 11.3 | 25.7 | 0.00 | 0.00 | 0.00 | 74 | 1005.9 |
| 20260505185512 | 26 | 217 | 14.5 | 32.2 | 0.00 | 0.00 | 0.00 | 72 | 1005.9 |
| 20260505185012 | 26 | 198 | 19.3 | 29.0 | 0.00 | 0.00 | 0.00 | 71 | 1006.0 |
| 20260505184534 | 26 | 197 | 16.1 | 25.7 | 0.00 | 0.00 | 0.00 | 72 | 1006.1 |
| 20260505184007 | 26 | 238 | 17.7 | 29.0 | 0.00 | 0.00 | 0.00 | 71 | 1006.0 |
| 20260505183512 | 26 | 198 | 17.7 | 30.6 | 0.00 | 0.00 | 0.00 | 71 | 1006.1 |
| 20260505183029 | 26 | 194 | 19.3 | 30.6 | 0.00 | 0.00 | 0.00 | 71 | 1006.0 |
| 20260505182507 | 26 | 215 | 17.7 | 30.6 | 0.00 | 0.00 | 0.00 | 71 | 1006.0 |
| 20260505182007 | 26 | 234 | 17.7 | 32.2 | 0.00 | 0.00 | 0.00 | 73 | 1006.0 |
| 20260505181517 | 26 | 233 | 20.9 | 32.2 | 0.00 | 0.00 | 0.00 | 72 | 1006.2 |
| 20260505181004 | 26 | 227 | 19.3 | 32.2 | 0.00 | 0.00 | 0.00 | 71 | 1006.1 |
| 20260505180511 | 26 | 230 | 19.3 | 29.0 | 0.00 | 0.00 | 0.00 | 72 | 1006.2 |
| 20260505180022 | 26 | 244 | 17.7 | 24.1 | 0.00 | 0.00 | 0.00 | 72 | 1006.2 |
| 20260505175507 | 26 | 224 | 16.1 | 30.6 | 0.00 | 0.00 | 0.00 | 72 | 1006.3 |
| 20260505175007 | 26 | 217 | 17.7 | 30.6 | 0.00 | 0.00 | 0.00 | 72 | 1006.4 |
| 20260505174538 | 26 | 213 | 14.5 | 30.6 | 0.00 | 0.00 | 0.00 | 73 | 1006.4 |
| 20260505174010 | 26 | 203 | 16.1 | 30.6 | 0.00 | 0.00 | 0.00 | 73 | 1006.5 |
| 20260505173507 | 26 | 188 | 17.7 | 25.7 | 0.00 | 0.00 | 0.00 | 72 | 1006.6 |
| 20260505173029 | 26 | 234 | 9.7 | 29.0 | 0.00 | 0.00 | 0.00 | 73 | 1006.6 |
| 20260505172509 | 25 | 207 | 16.1 | 29.0 | 0.00 | 0.00 | 0.00 | 74 | 1006.7 |
| 20260505172012 | 25 | 237 | 19.3 | 30.6 | 0.00 | 0.00 | 0.00 | 74 | 1006.8 |
| 20260505171528 | 25 | 194 | 14.5 | 30.6 | 0.00 | 0.00 | 0.00 | 74 | 1006.8 |
| 20260505171004 | 25 | 223 | 19.3 | 30.6 | 0.00 | 0.00 | 0.00 | 75 | 1006.8 |
| 20260505170503 | 25 | 209 | 14.5 | 30.6 | 0.00 | 0.00 | 0.00 | 74 | 1006.8 |
| 20260505170021 | 25 | 221 | 17.7 | 30.6 | 0.00 | 0.00 | 0.00 | 74 | 1006.6 |
| 20260505165506 | 25 | 188 | 19.3 | 29.0 | 0.00 | 0.00 | 0.00 | 73 | 1006.6 |
| 20260505165008 | 25 | 204 | 17.7 | 29.0 | 0.00 | 0.00 | 0.00 | 75 | 1006.5 |
| 20260505164524 | 25 | 201 | 17.7 | 29.0 | 0.00 | 0.00 | 0.00 | 74 | 1006.2 |
| 20260505164008 | 25 | 223 | 19.3 | 32.2 | 0.00 | 0.00 | 0.00 | 74 | 1006.2 |
| 20260505163510 | 25 | 196 | 16.1 | 32.2 | 0.00 | 0.00 | 0.00 | 76 | 1006.4 |
| 20260505163033 | 25 | 242 | 16.1 | 29.0 | 0.00 | 0.00 | 0.00 | 76 | 1006.4 |
| 20260505162506 | 24 | 212 | 17.7 | 30.6 | 0.00 | 0.00 | 0.00 | 76 | 1006.3 |
| 20260505162014 | 24 | 218 | 16.1 | 30.6 | 0.00 | 0.00 | 0.00 | 77 | 1006.2 |
| 20260505161530 | 24 | 242 | 14.5 | 33.8 | 0.00 | 0.00 | 0.00 | 78 | 1006.3 |
| 20260505161005 | 23 | 246 | 14.5 | 33.8 | 0.00 | 0.00 | 0.00 | 78 | 1006.4 |
| 20260505160504 | 23 | 207 | 12.9 | 29.0 | 0.00 | 0.00 | 0.00 | 78 | 1006.4 |
| 20260505153028 | 23 | 234 | 16.1 | 32.2 | 0.00 | 0.00 | 0.00 | 79 | 1006.5 |
| 20260505152504 | 23 | 207 | 16.1 | 32.2 | 0.00 | 0.00 | 0.00 | 80 | 1006.4 |
| 20260505152005 | 23 | 236 | 16.1 | 27.4 | 0.00 | 0.00 | 0.00 | 80 | 1006.5 |
| 20260505151517 | 23 | 207 | 16.1 | 25.7 | 0.00 | 0.00 | 0.00 | 80 | 1006.4 |
| 20260505151003 | 23 | 213 | 16.1 | 27.4 | 0.00 | 0.00 | 0.00 | 80 | 1006.3 |
| 20260505150509 | 23 | 180 | 17.7 | 27.4 | 0.00 | 0.00 | 0.00 | 80 | 1006.2 |
| 20260505140505 | 21 | 198 | 12.9 | 25.7 | 0.00 | 0.00 | 0.00 | 84 | 1006.4 |